Hourly Data Report for October 11, 2015

All times are specified in Local Standard Time (LST). Add 1 hour to adjust for Daylight Saving Time where and when it is observed.

CORAL HARBOUR A
NUNAVUT

64°11'36.000" N
83°21'34.000" W
62.20 m
2301002
71915
YZS

Download Data

Hourly Data (October 2015)
Hourly Data Report for October 11, 2015
Temp Definition
°C
Dew Point Temp Definition
°C
Rel Hum Definition
%
Wind Dir Definition
10's deg

Wind Spd Definition
km/h
Visibility Definition
km
Stn Press Definition
kPa
Hmdx Definition


Wind Chill Definition


Weather Definition


TIME
00:00 Legend Double Dagger -11.3 -13.8 82 34 6 24.1 99.60   -15 LegendNANA
01:00 Legend Double Dagger -10.9 -13.6 81 36 2 24.1 99.60   -12 Clear
02:00 Legend Double Dagger -12.5 -15.0 82 34 18 24.1 99.54   -21 LegendNANA
03:00 Legend Double Dagger -13.1 -15.4 83 34 22 24.1 99.51   -22 LegendNANA
04:00 Legend Double Dagger -12.5 -14.8 83 34 23 24.1 99.49   -22 Clear
05:00 Legend Double Dagger -12.2 -14.7 82 35 21 24.1 99.50   -21 LegendNANA
06:00 Legend Double Dagger -12.1 -14.7 81 34 20 24.1 99.50   -21 LegendNANA
07:00 Legend Double Dagger -12.8 -15.1 83 34 17 24.1 99.50   -21 Clear
08:00 Legend Double Dagger -11.8 -14.1 83 2 15 24.1 99.51   -19 LegendNANA
09:00 Legend Double Dagger -9.9 -12.6 81 35 14 24.1 99.53   -16 LegendNANA
10:00 Legend Double Dagger -7.5 -10.7 78 35 7 24.1 99.50   -11 Clear
11:00 Legend Double Dagger -6.3 -9.7 77 33 11 24.1 99.50   -11 LegendNANA
12:00 Legend Double Dagger -5.3 -9.4 73 32 10 24.1 99.53   -10 LegendNANA
13:00 Legend Double Dagger -4.7 -9.2 71 29 9 24.1 99.55   -9 Clear
14:00 Legend Double Dagger -4.2 -9.3 68 27 8 24.1 99.55   -8 LegendNANA
15:00 Legend Double Dagger -4.1 -9.2 68 27 8 24.1 99.56   -8 LegendNANA
16:00 Legend Double Dagger -4.6 -8.0 77 34 14 24.1 99.55   -10 Mainly Clear
17:00 Legend Double Dagger -5.6 -8.4 81 31 9 24.1 99.57   -10 LegendNANA
18:00 Legend Double Dagger -8.4 -10.0 88 34 13 24.1 99.62   -14 LegendNANA
19:00 Legend Double Dagger -9.4 -10.9 89 36 17 24.1 99.64   -16 Mainly Clear
20:00 Legend Double Dagger -10.0 -11.3 90 36 18 24.1 99.64   -17 LegendNANA
21:00 Legend Double Dagger -10.4 -12.2 87 35 17 24.1 99.64   -18 LegendNANA
22:00 Legend Double Dagger -11.1 -12.9 87 33 18 24.1 99.65   -19 Mainly Clear
23:00 Legend Double Dagger -11.5 -13.1 88 32 13 24.1 99.66   -18 LegendNANA

Notes on Data Quality.

Legend

  • E = Estimated
  • M = Missing
  • NA = Not Available
  • ‡ = Partner data that is not subject to review by the National Climate Archives
Date modified: